Tracking 31027 objects as of 19-Jul-2025
HD Live streaming from Space Station
objects crossing your sky now

NOAA 16 DEB

Track NOAA 16 DEB now!
10-day predictions


NORAD ID: 41203
Int'l Code: 2000-055DG
Perigee: 815.7 km
Apogee: 862.6 km
Inclination: 98.7 °
Period: 101.5 minutes
Semi major axis: 7210 km
RCS: Unknown
Launch date: September 21, 2000
Source: United States (US)
Launch site: AIR FORCE WESTERN TEST RANGE (AFWTR)

Note: This is SATELLITE DEBRIS
Your satellite tracking list
ATLAS 2A CENTAUR R/B
Track 1 satellite(s)




NASA's NSSDC Master Catalog

Two Line Element Set (TLE):
1 41203U 00055DG  25198.56271636  .00001720  00000-0  85583-3 0  9993
2 41203  98.7058 242.9834 0032506  14.1693 346.0387 14.18038778494343
Source of the keplerian elements: AFSPC